Location: Newark
(34.0131°N, 4.3314°W)
Time: 08:11:35
(UTC+00:00)

Explorer 7 - Pass Details

Date: 13 October 2019
Orbit: 485 x 680 km, 50.3° (Epoch: 13 November)

Event Time Altitude Azimuth Distance (km) Brightness Sun altitude
Rises 12:41:07 0° 208° (SSW) 2,536 10.9 47.3°
Reaches altitude 10° 12:43:23 10° 199° (SSW) 1,654 10.2 47.2°
Maximum altitude 12:46:48 34° 133° (SE) 805 8.4 47.0°
Drops below altitude 10° 12:50:15 10° 66° (ENE) 1,679 9.1 46.8°
Sets 12:52:34 0° 57° (ENE) 2,581 9.9 46.6°
